Terminal Aerodrome Forecast
Issued by NWS Rapid City, SD

Home | Current Version | Previous Version | Graphics & Text | Print | Product List | Glossary On
Versions: 1 2 3 4 5 6 7 8 9 10 11 12 13 14 15 16 17 18
000
FTUS43 KUNR 141500 AAA
TAFRAP
TAF AMD
KRAP 141522Z 1415/1512 34024G34KT P6SM SCT050
      TEMPO 1415/1417 4SM -SHSN BKN030
     FM150100 VRB04KT P6SM SCT200=

USA.gov is the U.S. government's official web portal to all federal, state and local government web resources and services.